CSS (WENTIAN)

Last updated on Wed Aug 26 2026 00:02:34 GMT+0000 (Coordinated Universal Time)

1 53239U 22085A 26237.47726206 .00016428 00000+0 20691-3 0 9994 2 53239 41.4679 261.3877 0001642 252.1478 107.9182 15.59254302288238
UTC large
Height (km)
Speed (km/s)
/
Latitude / Longitude
Inclination (degrees)
Orbital Period (minutes)
Azimuth
Elevation
Range (km)
Doppler Factor

Next 0 passes for location: London (51.5072 / 0.1276)

No passes found over London.
CSS (WENTIAN)